Regional Weather Roundup
Issued by NWS

Home | Current Version | Previous Version | Graphics & Text | Print | Product List | Glossary On
Versions: 1 2 3 4 5 6 7 8 9 10 11 12 13 14 15 16 17 18 19 20 21 22 23 24 25 26 27
000
ASUS45 KBOU 222110
RWRCO

WEATHER ROUNDUP FOR COLORADO
NATIONAL WEATHER SERVICE DENVER/BOULDER CO
200 PM MST MON JAN 22 2018

NOTE: "FAIR" INDICATES FEW OR NO CLOUDS BELOW 12000 FEET WITH NO
SIGNIFICANT WEATHER AND/OR OBSTRUCTIONS TO VISIBILITY.

COZ001>005-013-030-031-222200-
...NORTHWEST COLORADO...

CITY           SKY/WX    TMP DP  RH WIND       PRES   REMARKS
CRAIG          FAIR      20  10  65 SW3       30.22F
HAYDEN         FAIR      21  11  65 SE6       30.21  WCI  13
MEEKER         FAIR      20  10  65 CALM      30.20F
RABBIT EARS PA NOT AVBL
STEAMBOAT SPGS NOT AVBL
WALDEN         NOT AVBL
$$

COZ006>008-011-222200-
...WEST CENTRAL VALLEYS...

CITY           SKY/WX    TMP DP  RH WIND       PRES   REMARKS
GRAND JUNCTION FAIR      27  18  69 N6        30.27F WCI  20
MONTROSE       FAIR      32  10  40 NE5       30.25F WCI  27
EAGLE          FAIR      27  10  49 S3        30.22F
RIFLE          FAIR      30  14  51 CALM      30.25F
DELTA          FAIR      37   9  30 CALM      30.26F
NUCLA          FAIR      30  12  47 CALM      30.27F
$$

COZ017>023-064>068-222200-
...SOUTHWEST COLORADO...

CITY           SKY/WX    TMP DP  RH WIND       PRES   REMARKS
DURANGO        FAIR      27  17  66 VRB6      30.19F WCI  20
CORTEZ         FAIR      33  16  49 CALM      30.21F
PAGOSA SPRINGS FAIR      23  13  65 CALM      30.18S
TELLURIDE      FAIR      27   0  30 W3        30.16S
WOLF CREEK PAS NOT AVBL
$$

COZ009-010-012-014-032>034-037-058>063-222200-
...CENTRAL COLORADO...

CITY           SKY/WX    TMP DP  RH WIND       PRES   REMARKS
ASPEN          FAIR      26   3  37 VRB6      30.15F WCI  19
BUENA VISTA    FAIR      31  -1  25 NW15G22   30.06F WCI  20
COPPER MTN     NOT AVBL
BERTHOUD PASS  NOT AVBL
COTTONWOOD PAS NOT AVBL
GUNNISON       FAIR      25   8  48 CALM      30.18F
KREMMLING      NOT AVBL
LEADVILLE      FAIR      21   1  41 N13       30.06S WCI   9
SALIDA         FAIR      32   6  32 W3        30.15F
SUNLIGHT       NOT AVBL
WILKERSON PASS NOT AVBL
$$

COZ069>075-222200-
...SAN LUIS VALLEY/SANGRE DE CRISTO MOUNTAINS...

CITY           SKY/WX    TMP DP  RH WIND       PRES   REMARKS
ALAMOSA        FAIR      25   4  40 VRB6      30.12F WCI  18
DEL NORTE      NOT AVBL
LA VETA PASS   NOT AVBL
SAGUACHE       NOT AVBL
$$

COZ035-036-038>040-222200-
...NORTHERN COLORADO FRONT RANGE...

CITY           SKY/WX    TMP DP  RH WIND       PRES   REMARKS
DENVER INTL AP FAIR      40  10  29 W12       29.98R
DMNS CITY PARK NOT AVBL
AURORA         MOSUNNY   39  13  34 W7        29.99S
FRONT RANGE AP SUNNY     39  18  41 W7G16     29.99R
ERIE MUNI ARPT NOT AVBL
BOULDER MUN AP NOT AVBL
CENTENNIAL     FAIR      40   7  25 NW9       29.99S
BROOMFIELD     SUNNY     39  10  30 W8        29.99S
FORT COLLINS   FAIR      42  13  30 N10       29.97S
LONGMONT       FAIR      49   5  16 SE6       29.99S
$$

COZ041-046-047-076>085-087-088-222200-
...PIKES PEAK/PALMER DIVIDE AND SOUTHERN FOOTHILLS...

CITY           SKY/WX    TMP DP  RH WIND       PRES   REMARKS
COLO. SPRINGS  FAIR      42   5  21 N14G24    29.98S
A. F. ACADEMY  FAIR      38   4  24 N16G25    29.96S
SCHRIEVER AFB  FAIR      40   2  20 N17G26    29.99R
CHEYENNE MTN   FAIR      38  -3  17 N17G24    29.91R
ELLICOTT         N/A    N/A N/A N/A N17G26    29.97S
FALCON         FAIR      38  -4  17 N18G29    29.98R
FORT CARSON    FAIR      46   2  16 NE9       29.97S
LIMON          FAIR      36  17  46 N7        29.97F
MONUMENT HILL  NOT AVBL
CANON CITY     SUNNY     45  16  31 W8        30.01F
WALSENBURG     NOT AVBL
TRINIDAD       FAIR      45   1  16 NW21G29   30.01S
$$

COZ042>045-048>051-090-091-222200-
...NORTHEAST COLORADO...

CITY           SKY/WX    TMP DP  RH WIND       PRES   REMARKS
GREELEY ARPT   FAIR      40  15  36 NW20      29.97
AKRON          FAIR      32  20  61 NW9       29.96F WCI  24
BURLINGTON     FAIR      31  19  61 NW21      29.95R WCI  18
WRAY           FAIR      34  21  60 NW21G29   29.94F WCI  22
YUMA           NOT AVBL
STERLING       NOT AVBL
HOLYOKE        NOT AVBL
FORT MORGAN    FAIR      40  17  39 W18       30.00R
$$

COZ086-089-092>099-222200-
...SOUTHEAST COLORADO...

CITY           SKY/WX    TMP DP  RH WIND       PRES   REMARKS
PUEBLO         FAIR      50   5  16 W22       29.99S
LA JUNTA       FAIR      49   9  19 NW15G22   30.00F
LAMAR          FAIR      41  17  38 NW18      30.00R
SPRINGFIELD      N/A     39  13  34 N22G31    30.01R
$$




USA.gov is the U.S. government's official web portal to all federal, state and local government web resources and services.